User: anonymous   Login
Location: Fort Hays State University
(38.8712°N, 99.3432°W)
Time: 05:34:17
(UTC-05:00)
Language:

ALOS - Orbit

View from above orbital plane
View from above orbital plane
View from above satellite
View from above satellite

Ground track
Ground track

The orbit data is extracted from the following two-line orbital elements,

1 28931U 06002A   15244.86780058  .00000264  00000-0  61520-4 0  9999
2 28931  97.9266 291.1789 0001046 137.5741 222.5541 14.61955319511844
Epoch (UTC): 01 September 2015 20:49:37
Eccentricity: 0.0001046
inclination: 97.9266°
perigee height: 686 km
apogee height: 687 km
right ascension of ascending node: 291.1789°
argument of perigee: 137.5741°
revolutions per day: 14.61955319
mean anomaly at epoch: 222.5541°
orbit number at epoch: 51184

The dashed part of the orbit path shows where the satellite is in the earth's shadow,  

DLR